Dewpoint
-6 -5 -4 -5 -3 -0 0 0 1 1 1 2 2 2 2 2 2 2 2 2 2 2 2 2 2 2 2
-6 -3 -2 -1 0 -1 -3 0 0 1 1 2 2 2 2 2 1 3 3 3 3 3 3 2 2 3 3
-6 -3 -1 -1 -1 -1 -2 0 -0 1 1 1 1 1 1 2 1 2 2 2 2 2 3 3 3 2 2
-6 -3 -1 -2 -1 -1 -1 -1 -1 -3 -1 1 0 0 1 1 1 1 1 1 0 0 1 2 2 2 2
-2 -2 -1 -2 -1 -1 -1 -2 -5 -9 -2 -0 -0 0 0 1 1 0 0 0 -0 -0 1 2 2 1 1
-3 -2 -2 -2 -3 -5 -2 -3 -3 -6 -7 -10 -13 -16 -8 -3 -1 -0 -0 -1 -0 -0 1 1 1 0 0
-9 -5 -2 -3 -3 -8 -8 -6 -7 -6 -7 -11 -12 -13 -12 -11 -4 -1 -0 0 0 -0 -0 0 0 0 0
-9 -12 -9 -9 -6 -9 -11 -12 -12 -13 -10 -6 -6 -10 -12 -15 -11 -3 -0 1 1 0 0 0 1 1 2
-4 -7 -11 -11 -10 -8 -8 -7 -7 -10 -10 -8 -10 -10 -12 -12 -11 -5 -1 -0 -0 0 1 0 0 0 0
-5 -4 -6 -10 -9 -8 -8 -8 -8 -8 -10 -9 -10 -11 -12 -11 -10 -7 -3 -1 -1 -2 -2 -1 -1 -0 -1
-4 -5 -4 -6 -9 -8 -8 -10 -9 -10 -11 -11 -12 -11 -10 -13 -13 -12 -12 -13 -12 -11 -8 -4 -3 -2 -1
-3 -3 -3 -4 -5 -8 -8 -8 -9 -11 -11 -11 -12 -12 -10 -9 -11 -12 -11 -13 -13 -12 -12 -12 -10 -6 -3
-4 -4 -3 -3 -4 -5 -6 -7 -8 -11 -11 -12 -12 -12 -10 -8 -9 -12 -7 -11 -12 -12 -10 -10 -9 -7 -4
-9 -5 -4 -4 -4 -4 -5 -6 -9 -10 -11 -12 -13 -11 -10 -9 -8 -8 -8 -7 -11 -10 -9 -9 -9 -9 -9
-7 -7 -6 -5 -5 -4 -4 -5 -6 -7 -10 -12 -13 -11 -10 -9 -8 -8 -9 -10 -9 -9 -9 -8 -8 -8 -8
-5 -6 -5 -5 -5 -5 -5 -5 -6 -7 -9 -11 -11 -9 -9 -9 -10 -10 -9 -8 -9 -9 -9 -8 -9 -8 -7
-6 -6 -5 -5 -5 -6 -6 -5 -6 -6 -7 -10 -10 -9 -8 -7 -7 -10 -10 -9 -8 -8 -9 -8 -7 -8 -8
Wind_Speed
18 16 19 20 17 15 16 15 14 18 15 18 19 19 19 20 20 21 22 20 19 20 19 19 19 20 21
18 16 14 14 17 17 16 15 16 15 15 16 18 18 19 21 20 21 23 22 21 21 21 21 20 19 19
23 18 15 15 15 15 13 15 15 16 16 17 19 20 22 22 21 23 25 25 23 23 24 23 23 23 22
21 19 16 16 14 15 14 13 16 15 14 17 20 22 22 23 23 24 25 27 25 24 25 25 25 25 24
18 17 17 14 13 14 17 16 20 16 14 12 17 20 22 25 27 28 28 27 27 27 26 26 26 26 26
19 19 19 17 18 18 17 18 15 10 17 20 20 21 21 20 19 20 23 25 25 26 25 26 27 26 27
26 24 22 19 21 21 20 19 19 17 20 24 16 16 13 14 16 17 19 22 25 26 26 26 26 26 26
28 29 28 25 25 25 24 25 24 23 18 20 14 18 16 12 14 16 16 16 18 19 21 22 21 20 20
27 28 30 30 28 26 24 20 21 21 15 17 20 19 19 16 12 13 13 13 14 16 19 21 23 23 24
29 28 29 30 29 29 27 27 23 22 17 15 19 17 10 10 13 13 14 17 19 21 24 25 25 25 26
31 30 30 31 32 32 31 31 30 30 25 24 25 18 17 20 20 19 21 22 22 22 25 26 25 24 25
32 33 32 34 33 33 32 31 32 31 28 27 26 22 19 21 25 21 21 21 21 20 22 23 22 24 24
33 34 34 35 34 33 31 33 33 32 31 29 29 28 25 25 25 25 22 23 20 18 16 19 20 20 21
30 32 34 32 36 33 32 31 32 33 32 29 28 28 28 26 23 25 22 17 20 21 21 19 17 17 18
28 30 32 34 39 37 34 33 33 32 30 27 25 26 26 24 25 26 25 22 21 18 18 18 16 15 17
32 32 32 33 36 37 37 35 34 32 31 28 24 23 23 26 26 26 23 21 17 16 16 18 19 14 15
33 32 34 34 32 36 36 36 35 33 30 26 23 23 22 20 17 15 16 17 16 16 16 15 17 17 17
Wind_Direction
283 285 289 298 298 298 298 294 296 295 282 259 261 261 260 262 264 261 259 259 258 258 261 263 268 272 278
287 287 287 285 282 289 289 294 291 284 265 256 256 260 261 264 267 261 258 260 263 264 265 265 267 272 278
288 288 289 292 294 294 297 274 286 278 271 262 262 262 261 262 264 263 265 263 265 266 265 264 267 272 273
283 289 286 289 289 296 294 295 288 290 279 269 264 263 261 257 260 262 265 267 266 263 262 263 265 267 268
277 283 288 291 289 289 289 297 299 302 282 271 270 265 264 265 266 264 262 265 265 262 259 262 267 269 270
273 275 282 283 284 292 280 295 307 286 280 282 287 285 277 266 265 264 262 260 259 259 257 262 267 270 272
271 272 275 278 280 287 286 289 285 286 295 298 302 293 289 281 269 265 261 258 262 266 263 265 265 269 275
275 279 274 275 273 281 282 284 287 290 289 285 294 293 293 295 279 267 267 264 264 271 274 274 273 273 271
275 275 274 274 274 274 272 277 284 289 283 280 293 294 303 299 265 256 251 254 264 270 270 273 272 270 270
284 276 271 270 268 267 269 266 266 282 284 261 281 298 305 285 261 264 267 264 264 270 271 274 276 274 270
283 279 272 268 266 267 266 265 264 266 267 278 282 279 277 280 281 272 277 277 279 281 274 270 273 276 277
279 273 272 275 272 269 269 266 265 268 268 266 270 274 272 277 281 288 286 286 292 288 285 282 276 270 271
272 272 269 276 280 272 267 262 263 264 264 263 266 270 268 267 273 280 292 292 294 290 291 291 288 282 277
285 277 274 270 272 271 265 264 265 265 264 264 263 261 263 264 269 276 279 280 287 292 294 291 286 283 281
285 285 279 277 270 272 264 259 256 260 263 264 257 255 257 262 261 267 277 281 286 292 291 290 287 285 282
283 283 282 279 272 268 266 257 254 253 256 257 254 250 255 261 260 266 268 271 276 282 289 289 289 284 280
280 281 281 280 272 262 261 258 252 249 250 254 244 235 235 243 263 260 257 264 263 276 285 284 285 290 291
Height
1433 1432 1428 1425 1424 1422 1421 1418 1417 1416 1415 1415 1415 1415 1415 1415 1414 1414 1415 1415 1416 1416 1417 1417 1417 1417 1417
1428 1427 1425 1423 1419 1416 1414 1414 1412 1411 1410 1410 1410 1410 1410 1410 1409 1409 1409 1410 1411 1411 1411 1411 1411 1411 1411
1422 1422 1421 1418 1416 1413 1410 1409 1407 1407 1406 1406 1406 1405 1405 1404 1404 1404 1403 1403 1404 1404 1404 1404 1404 1404 1404
1418 1416 1416 1414 1412 1409 1406 1405 1402 1401 1400 1400 1399 1399 1399 1398 1398 1398 1397 1397 1397 1397 1397 1397 1397 1397 1396
1414 1412 1410 1410 1409 1407 1403 1400 1397 1395 1394 1394 1393 1392 1392 1392 1392 1391 1390 1390 1390 1390 1390 1390 1390 1389 1389
1409 1407 1406 1405 1403 1400 1399 1397 1395 1392 1390 1388 1388 1385 1384 1384 1383 1383 1382 1382 1382 1382 1382 1382 1382 1382 1381
1401 1401 1400 1400 1398 1395 1393 1392 1390 1389 1386 1380 1382 1379 1378 1378 1377 1375 1375 1375 1375 1375 1375 1375 1375 1375 1374
1394 1394 1393 1392 1390 1389 1388 1385 1384 1382 1382 1377 1376 1374 1374 1373 1371 1370 1369 1368 1368 1368 1367 1367 1368 1368 1367
1387 1386 1385 1384 1384 1383 1381 1380 1377 1376 1376 1374 1371 1369 1369 1367 1364 1364 1364 1364 1363 1362 1360 1360 1360 1361 1361
1377 1376 1376 1375 1376 1375 1375 1373 1373 1370 1369 1370 1368 1367 1364 1362 1360 1360 1359 1358 1357 1355 1354 1353 1353 1352 1351
1368 1367 1367 1366 1366 1366 1366 1366 1365 1364 1364 1363 1361 1361 1360 1357 1355 1355 1353 1351 1349 1348 1347 1346 1345 1344 1342
1360 1359 1358 1357 1358 1358 1358 1358 1357 1357 1359 1357 1355 1355 1354 1351 1348 1347 1346 1345 1342 1340 1338 1337 1336 1336 1335
1352 1350 1349 1350 1350 1349 1349 1349 1349 1348 1349 1349 1349 1348 1347 1345 1342 1340 1340 1338 1336 1333 1331 1330 1329 1328 1327
1342 1342 1342 1341 1339 1340 1340 1341 1340 1339 1340 1341 1341 1341 1339 1339 1338 1335 1334 1333 1331 1329 1326 1324 1323 1321 1321
1335 1333 1331 1330 1329 1329 1329 1330 1329 1331 1331 1332 1332 1333 1333 1333 1331 1330 1328 1326 1324 1323 1321 1319 1318 1316 1316
1326 1324 1322 1321 1319 1319 1319 1319 1320 1321 1322 1324 1326 1326 1326 1324 1324 1322 1322 1320 1319 1318 1316 1314 1312 1312 1311
1315 1313 1312 1311 1310 1309 1309 1309 1309 1312 1313 1316 1317 1319 1319 1318 1319 1317 1316 1315 1314 1313 1312 1310 1308 1307 1306